Date String (YYYY-MM-DD hh:mm:ss) UTC,Instrument flags,Ambient pressure (hPa),Sample flow (lpm),Bypass flow (lpm),Sample temperature (°C),Ambient temperature (°C),ASC tube jacket temperature (°C),LED temperature (°C),Box temperature (°C),Sample RH (%),Span deviation,Mass concentration (μg/m³),Mass concentration (μg/m³),Mass concentration (μg/m³)
DateTimeUTC,F1_M11,P_M11,Q1_M11,Q2_M11,T1_M11,T2_M11,T3_M11,T4_M11,T5_M11,U1_M11,ZSPAN_M11,X0_M11,X2_M11,X1_M11
2021-12-09 15:00:00,,0814.9,5.00,0.00,22.7,22.1,00.0,31.6,24.5,15.3,0000.0,0003.56,0000.81,0000.53
2021-12-09 15:01:00,,0815.0,5.01,0.00,22.7,22.1,00.0,31.7,24.6,15.2,0000.0,0003.82,0000.83,0000.52
2021-12-09 15:02:00,,0815.1,4.99,0.00,22.8,22.2,00.0,31.7,24.6,15.1,0000.0,0003.80,0000.85,0000.52
2021-12-09 15:03:00,,0814.9,5.00,0.00,22.8,22.2,00.0,31.7,24.6,15.1,0000.0,0003.81,0000.86,0000.53
2021-12-09 15:04:00,,0814.9,5.00,0.00,22.8,22.2,00.0,31.7,24.7,15.3,0000.0,0005.32,0000.93,0000.53
2021-12-09 15:05:00,,0814.9,4.98,0.00,22.8,22.2,00.0,31.7,24.7,15.3,0000.0,0006.40,0000.97,0000.52
2021-12-09 15:06:00,,0814.9,5.01,0.00,22.8,22.2,00.0,31.7,24.7,15.3,0000.0,0006.04,0000.97,0000.50
2021-12-09 15:07:00,,0814.8,5.00,0.00,22.9,22.3,00.0,31.7,24.7,15.3,0000.0,0005.59,0000.93,0000.49
2021-12-09 15:08:00,,0814.8,4.99,0.00,22.9,22.3,00.0,31.8,24.7,15.3,0000.0,0005.51,0000.90,0000.48
2021-12-09 15:09:00,,0814.9,5.01,0.00,22.9,22.3,00.0,31.8,24.7,15.3,0000.0,0005.56,0000.92,0000.48
2021-12-09 15:10:00,,0814.9,5.01,0.00,22.9,22.3,00.0,31.8,24.7,15.4,0000.0,0006.04,0000.96,0000.47
2021-12-09 15:11:00,,0814.9,4.99,0.00,22.9,22.3,00.0,31.8,24.7,15.5,0000.0,0005.41,0001.01,0000.46
2021-12-09 15:12:00,,0814.9,5.01,0.00,22.9,22.3,00.0,31.8,24.8,15.4,0000.0,0006.59,0001.00,0000.45
2021-12-09 15:13:00,,0814.9,4.99,0.00,22.9,22.3,00.0,31.8,24.8,14.9,0000.0,0006.73,0001.01,0000.45
2021-12-09 15:14:00,,0814.9,4.99,0.00,23.0,22.3,00.0,31.8,24.8,14.8,0000.0,0006.71,0001.00,0000.44
2021-12-09 15:15:00,,0814.9,5.01,0.00,23.0,22.4,00.0,31.8,24.8,15.3,0000.0,0006.14,0000.96,0000.43
2021-12-09 15:16:00,,0814.9,5.00,0.00,23.0,22.4,00.0,31.9,24.8,15.4,0000.0,0005.27,0000.94,0000.42
2021-12-09 15:17:00,,0815.1,5.01,0.00,23.0,22.4,00.0,31.9,24.9,15.5,0000.0,0005.40,0000.99,0000.43
2021-12-09 15:18:00,,0815.2,5.01,0.00,23.0,22.4,00.0,31.9,24.9,15.3,0000.0,0005.19,0001.03,0000.43
2021-12-09 15:19:00,,0815.1,4.99,0.00,23.0,22.4,00.0,31.9,24.9,15.1,0000.0,0005.26,0001.05,0000.43
2021-12-09 15:20:00,,0815.1,5.01,0.00,23.0,22.4,00.0,31.9,24.9,15.4,0000.0,0005.63,0001.09,0000.43
2021-12-09 15:21:00,,0815.2,4.99,0.00,23.0,22.4,00.0,32.0,24.9,15.5,0000.0,0005.71,0001.15,0000.43
2021-12-09 15:22:00,,0815.2,5.03,0.00,23.0,22.4,00.0,32.0,24.8,15.6,0000.0,0006.08,0001.18,0000.44
2021-12-09 15:23:00,,0815.2,4.99,0.00,23.0,22.4,00.0,32.0,24.8,15.7,0000.0,0007.05,0001.26,0000.45
2021-12-09 15:24:00,,0815.2,5.01,0.00,23.0,22.4,00.0,32.0,24.9,15.6,0000.0,0007.64,0001.31,0000.46
2021-12-09 15:25:00,,0815.3,4.99,0.00,23.1,22.4,00.0,32.0,24.9,15.6,0000.0,0007.84,0001.31,0000.46
2021-12-09 15:26:00,,0815.3,5.00,0.00,23.1,22.4,00.0,32.0,24.8,15.6,0000.0,0008.03,0001.38,0000.47
2021-12-09 15:27:00,,0815.3,5.00,0.00,23.1,22.4,00.0,32.0,24.9,15.6,0000.0,0008.05,0001.44,0000.48
2021-12-09 15:28:00,,0815.3,4.98,0.00,23.1,22.4,00.0,32.0,24.9,15.5,0000.0,0008.96,0001.46,0000.50
2021-12-09 15:29:00,,0815.3,5.01,0.00,23.1,22.4,00.0,32.0,24.9,15.5,0000.0,0009.87,0001.52,0000.52
2021-12-09 15:30:00,,0815.3,5.00,0.00,23.1,22.4,00.0,32.0,24.9,15.5,0000.0,0009.97,0001.64,0000.53
2021-12-09 15:31:00,,0815.3,5.00,0.00,23.1,22.4,00.0,32.0,24.9,15.4,0000.0,0009.92,0001.64,0000.55
2021-12-09 15:32:00,,0815.3,5.00,0.00,23.1,22.4,00.0,32.0,24.9,15.5,0000.0,0009.74,0001.65,0000.57
2021-12-09 15:33:00,,0815.3,5.00,0.00,23.1,22.4,00.0,32.0,24.9,15.5,0000.0,0009.76,0001.65,0000.59
2021-12-09 15:34:00,,0815.3,5.00,0.00,23.1,22.4,00.0,32.0,24.9,15.4,0000.0,0008.87,0001.65,0000.62
2021-12-09 15:35:00,,0815.2,5.01,0.00,23.1,22.5,00.0,32.0,24.9,15.2,0000.0,0008.58,0001.73,0000.67
2021-12-09 15:36:00,,0815.3,4.98,0.00,23.1,22.5,00.0,32.0,24.9,15.0,0000.0,0009.59,0001.97,0000.73
2021-12-09 15:37:00,,0815.2,5.02,0.00,23.1,22.5,00.0,32.0,24.9,15.1,0000.0,0010.22,0002.08,0000.80
2021-12-09 15:38:00,,0815.3,5.00,0.00,23.1,22.5,00.0,32.1,24.9,15.3,0000.0,0011.21,0002.24,0000.86
2021-12-09 15:39:00,,0815.3,5.01,0.00,23.1,22.4,00.0,32.1,24.9,15.3,0000.0,0011.08,0002.40,0000.92
2021-12-09 15:40:00,,0815.4,5.00,0.00,23.1,22.5,00.0,32.1,24.9,15.3,0000.0,0010.82,0002.54,0000.98
2021-12-09 15:41:00,,0815.4,4.99,0.00,23.1,22.5,00.0,32.1,24.9,15.2,0000.0,0011.40,0002.58,0001.04
2021-12-09 15:42:00,,0815.4,5.00,0.00,23.1,22.5,00.0,32.1,24.9,15.1,0000.0,0011.81,0002.83,0001.10
2021-12-09 15:43:00,,0815.7,5.00,0.00,23.1,22.5,00.0,32.1,24.9,15.1,0000.0,0012.52,0003.07,0001.16
2021-12-09 15:44:00,,0816.0,4.99,0.00,23.1,22.5,00.0,32.1,24.9,15.0,0000.0,0013.17,0003.17,0001.22
2021-12-09 15:45:00,,0816.0,5.01,0.00,23.1,22.5,00.0,32.1,25.0,15.0,0000.0,0014.45,0003.23,0001.27
2021-12-09 15:46:00,,0816.1,4.99,0.00,23.2,22.5,00.0,32.1,25.0,15.1,0000.0,0014.68,0003.27,0001.31
2021-12-09 15:47:00,,0815.9,5.00,0.00,23.2,22.5,00.0,32.1,24.9,15.2,0000.0,0014.53,0003.28,0001.34
2021-12-09 15:48:00,,0815.7,5.01,0.00,23.2,22.5,00.0,32.1,24.9,15.3,0000.0,0014.20,0003.32,0001.37
2021-12-09 15:49:00,,0815.7,4.99,0.00,23.2,22.5,00.0,32.1,24.9,15.3,0000.0,0014.00,0003.33,0001.40
2021-12-09 15:50:00,,0815.8,5.01,0.00,23.2,22.5,00.0,32.1,25.0,15.3,0000.0,0014.08,0003.33,0001.44
2021-12-09 15:51:00,,0815.7,5.02,0.00,23.2,22.5,00.0,32.1,25.0,15.4,0000.0,0014.06,0003.35,0001.46
2021-12-09 15:52:00,,0815.7,4.99,0.00,23.2,22.5,00.0,32.1,24.9,15.4,0000.0,0014.28,0003.36,0001.48
2021-12-09 15:53:00,,0815.8,4.99,0.00,23.2,22.5,00.0,32.1,25.0,15.4,0000.0,0016.11,0003.34,0001.53
2021-12-09 15:54:00,,0815.7,5.01,0.00,23.2,22.5,00.0,32.1,24.9,15.5,0000.0,0016.20,0003.31,0001.56
2021-12-09 15:55:00,,0815.7,4.99,0.00,23.2,22.5,00.0,32.1,25.0,15.5,0000.0,0015.70,0003.33,0001.58
2021-12-09 15:56:00,,0815.8,5.00,0.00,23.2,22.5,00.0,32.2,25.0,15.5,0000.0,0014.65,0003.30,0001.59
2021-12-09 15:57:00,,0815.8,5.01,0.00,23.2,22.5,00.0,32.2,25.0,15.5,0000.0,0014.71,0003.30,0001.58
2021-12-09 15:58:00,,0815.8,5.00,0.00,23.2,22.5,00.0,32.2,25.0,15.5,0000.0,0014.02,0003.28,0001.56
2021-12-09 15:59:00,,0815.7,5.00,0.00,23.2,22.5,00.0,32.2,25.0,15.5,0000.0,0013.45,0003.26,0001.55
